Regional Weather Roundup
Issued by NWS

Home | Current Version | Previous Version | Text Only | Print | Product List | Glossary Off
Versions: 1 2 3 4 5 6 7 8 9 10 11 12 13 14 15 16 17 18 19 20 21 22 23 24 25 26 27 28 29 30 31 32 33 34 35 36 37 38 39 40 41 42 43 44 45 46 47 48 49 50

512
ASUS45 KABQ 280110
RWRNM
NEW MEXICO REGIONAL WEATHER ROUNDUP
NATIONAL WEATHER SERVICE ALBUQUERQUE NM
600 PM MST MON FEB 27 2017

NOTE: "FAIR" MEANS FEW OR NO CLOUDS BELOW 12,000 FEET AGL WITH NO
       SIGNIFICANT WEATHER OR OBSTRUCTIONS TO VISION.

      THIS PRODUCT IS RELEASED AS TWO VERSIONS.  ONE VERSION NEAR
      THE TOP OF THE HOUR CONTAINING PRELIMINARY DATA FROM ALBUQUERQUE
      AND OTHER STATIONS.  A FINAL VERSION WITH ADDITIONAL DATA IS
      ISSUED ABOUT 10 MINUTES AFTER THE HOUR.

NMZ501-503-504-510>518-280200-
NORTHWEST PLATEAU/NORTHCENTRAL MOUNTAINS

CITY           SKY/WX    TMP DP  RH WIND       PRES   REMARKS
FARMINGTON     CLOUDY    41  32  70 NW7       29.82R
LOS ALAMOS     FLURRIES  39  27  61 SW10G16   29.92R WCI  32
SANTA FE       MOCLDY    48  14  25 CALM      29.85R
TAOS             N/A     36  19  51 CALM      29.91R
ANGEL FIRE     LGT SNOW  30  22  70 W18G29    29.88R WCI  18

$$
NMZ402-403-502-505>509-280200-
WESTCENTRAL MOUNTAINS/SOUTHWEST MOUNTAINS

CITY           SKY/WX    TMP DP  RH WIND       PRES   REMARKS
GALLUP         CLOUDY    39  35  86 S6        29.89R WCI  35
GRANTS         FAIR      41  32  70 CALM      29.92S
SILVER CITY    MOCLDY    54  21  27 W7        29.97R

$$
NMZ407-409-411-412-280200-
SOUTHERN DESERTS

CITY           SKY/WX    TMP DP  RH WIND       PRES   REMARKS
DEMING         FAIR      62  24  23 SW18G26   29.93R
LAS CRUCES     FAIR      62  19  19 W8        29.94R
HOLLOMAN AFB   MOCLDY    63  22  20 S5        29.94R
ALAMOGORDO     FAIR      59  23  25 S6        29.92S
T OR C         FAIR      60  17  18 W13       29.90R

$$
NMZ519>523-280200-
CENTRAL VALLEYS/CENTRAL HIGHLANDS

CITY           SKY/WX    TMP DP  RH WIND       PRES   REMARKS
ALBUQUERQUE    MOCLDY    58  11  15 W16G26    29.83R
DOUBLE EAGLE   MOCLDY    55  18  22 W28       29.85R
MORIARTY ARPT  FAIR      47  15  27 S12       29.87R
CLINES CORNERS FAIR      46  12  25 SW23G30   29.88R
BELEN          FAIR      58   7  13 SW22G29   29.84R
SOCORRO        FAIR      60   8  12 SW12      29.85R

$$
NMZ524>526-539-540-280200-
SOUTHCENTRAL MOUNTAINS

CITY           SKY/WX    TMP DP  RH WIND       PRES   REMARKS
RUIDOSO        FAIR      46  14  27 SW22G31   29.93S

$$
NMZ527>531-280200-
NORTHEAST HIGHLANDS/NORTHEAST PLAINS

CITY           SKY/WX    TMP DP  RH WIND       PRES   REMARKS
LAS VEGAS      FAIR      44  12  27 SW17      29.82R
RATON          FAIR      43  13  29 W15G29    29.77R
CLAYTON        FAIR      54  10  17 W10       29.74R

$$
NMZ532>537-280200-
EASTCENTRAL PLAINS

CITY           SKY/WX    TMP DP  RH WIND       PRES   REMARKS
TUCUMCARI      FAIR      61  11  14 W15       29.75R
CANNON AFB     FAIR      60  13  15 W12       29.82R
CLOVIS AIRPORT FAIR      52  16  24 SW12      29.82R

$$
NMZ028-029-538-280200-
SOUTHEAST PLAINS

CITY           SKY/WX    TMP DP  RH WIND       PRES   REMARKS
ROSWELL        FAIR      64  14  14 SW10      29.84
ARTESIA        FAIR      64  19  17 SW10G16   29.87R
CARLSBAD       FAIR      67  19  16 SW8       29.86S
HOBBS          CLEAR     64  16  15 SW9       29.90R


$$




USA.gov is the U.S. government's official web portal to all federal, state and local government web resources and services.